Погода в Жердевке

Погода в Жердевке : погода сейчас, прогноз погоды и архив. Всё, что Вы хотите узнать о погоде в Жердевке!

Хотите узнать прогноз погоды в Жердевке? Тогда Вам сюда: Погода в Жердевке

Поиск расширенной информации на нашем сайте:

Другие новости

Новости СМИ2

Главная страница сайта

Новости сайта

02.10.2013

Напоминаем, что на нашем новом сайте вы можете получить высокодетализированные прогнозы погоды по пунктам России, СНГ и мира (включающие важные для авиации метеовеличины, такие как направление и скорость ветра, видимость, явления погоды, количество и форма облачности, нижняя и верхняя граница облачности), а также ознакомиться с разнообразными материалами по авиационной метеорологии и подборкой полезных ссылок на эту тему.

Сайт Метеоцентр.Азия посвящён разработке технологий оптимизации авиаметеорологического обслуживания, включая проектирование и перспективное создание нескольких автоматизированных авиаметеорологических систем:
- система выпуска высокодетальных прогностических карт явлений погоды для нижнего воздушного пространства по России и ближнему зарубежью;
- система верификации прогнозов TAF (выпускаемых синоптиками официальных АМСГ РФ и ближнего зарубежья) и AUTOTAF (выпускаемых сайтом Метеоцентр.Азия) - выявление ошибок, онлайн-сопоставление с фактической погодой METAR, автоматическое внесение коррективов в прогнозы при резком отклонении фактической погоды от прогноза, подсчёт оправдываемости прогнозов по элементам и в целом;
- система обработки, анализа и отображения авиаметеорологической информации для применения провайдерами метеорологической информации.

Рекомендуем: Цена пластиковые окна расчет стоимости окон cmkbadpat окна.

Погода в Жердевке - сегодня

Время (UTC), дата Ветер
(°,м/с) 
Видим.   Явления Облачность Т
(°С)
Тd
(°С)
f(%) Тe
(°С)
Pmin
(гПа)
dP
(гПа)
Po
(мм)
O2
(г/м3)
Тmin Tmax R s Состояние
почвы
09 26.04.17 220 (ЮЗ) 6-13{13}  20000 м    5/5 1000 м 
[Cu hum]
+15.9 -1.2 31 +15  1024.6  -0.3  755  288           
12 26.04.17 220 (ЮЗ) 6-14{14}  20000 м    4/3 1000 м верхняя 
[Cu hum|Ci fib]
+17.5 -2.5 25 +17  1023.6  -0.9  755  286           
15 26.04.17 220 (ЮЗ) 6-11{15}  20000 м    ясно 
+16.4 -1.7 29 +16  1022.6  -1.1  754  287    +17.9       
18 26.04.17 210 (ЮЗ) 5{12}  20000 м    4/0 средняя 
[Ac lent]
+11.8 -0.2 44 +11  1024.2  1.3  755  292           
21 26.04.17 200 (Ю) 7{10}  20000 м    ясно 
+9.6 +0.2 52 +8  1024.5  0.2  755  294           
00 27.04.17 190 (Ю) 5{10}  10 км    8/0 средняя 
[Ac trans]
+7.2 +0.4 62 +5  1025.3  0.6  755  296           
03 27.04.17 180 (Ю) 4{10}  10 км    8/0 средняя 
[Ac lent]
+6.4 +0.5 66 +5  1025.5  0.2  755  297  +5.8         
06 27.04.17 210 (ЮЗ) 6-10{11}  10 км    4/0 верхняя 
[Ci fib]
+12.8 +1.7 47 +12  1025.9  0.7  756  291           
09 27.04.17 210 (ЮЗ) 8-13{15}  20000 м    8/0 средняя, верхняя 
[Ac lent|Ci fib]
+17.3 -0.5 30 +17  1024.9  -0.6  756  286           
12 27.04.17 200 (Ю) 9-13{16}  20000 м    8/0 верхняя 
[Ci fib]
+19.7 -2.5 22 +20  1023.6  -1.3  755  284           
15 27.04.17 200 (Ю) 9-14{16}  20000 м    8/0 средняя, верхняя 
[Ac lent|Ci fib]
+19.8 -4.4 19 +20  1022.2  -1.3  754  284    +20.6       
18 27.04.17 190 (Ю) 6{14}  20000 м    6/0 средняя, верхняя 
[Ac As|Ci fib]
+15.2 -1.9 31 +15  1023.4  0.9  754  288           
21 27.04.17 190 (Ю) 20000 м    ясно 
+11.3 -0.9 43 +10  1024.2  0.5  755  292           
00 28.04.17 190 (Ю) 5{11}  20000 м    ясно 
+10.8 +0 47 +10  1024.3  0.1  755  293           
03 28.04.17 170 (Ю) 3{10}  10 км    4/0 верхняя 
[Ci fib]
+6.8 +0.7 65 +6  1025  0.5  755  297  +6.8         
06 28.04.17 200 (Ю) 5{10}  20000 м    4/0 верхняя 
[Ci fib]
+15.5 +2.7 42 +15  1024.6  0.2  755  288           
09 28.04.17 190 (Ю) 5{10}  20000 м    3/0 верхняя 
[Ci fib]
+19.9 +1.9 30 +20  1023.9  -0.5  755  283           
12 28.04.17 180 (Ю) 7-12{13}  20000 м    8/0 верхняя 
[Ci fib]
+22.8 +1.7 25 +23  1022.4  -1.3  754  280           
15 28.04.17 190 (Ю) 6{12}  20000 м    8/0 верхняя 
[Ci fib]
+22.1 +1.1 25 +22  1021.5  -0.9  753  281    +23.2       
18 28.04.17 170 (Ю) 2{10}  20000 м    6/0 верхняя 
[Ci fib]
+16.5 +1.3 36 +17  1022.1  0.3  753  286           
21 28.04.17 160 (Ю) 20000 м    ясно 
+12.1 +2.7 53 +12  1023.1  0.6  754  290           
00 29.04.17 150 (ЮВ) 20000 м    ясно 
+9.6 +1.1 55 +10  1023.2  754  293           
03 29.04.17 130 (ЮВ) 10 км    ясно 
+8.2 +0.6 59 +8  1023.3  754  295  +7.7         
06 29.04.17 140 (ЮВ) 10 км    3/0 средняя 
[Ac trans]
+15.2 +0.2 36 +15  1022.1  -0.7  753  288           
09 29.04.17 150 (ЮВ) 6-10{11}  20000 м    ясно 
+19.1 +2.5 33 +19  1020.9  -1  753  283           
Время (UTC), дата Ветер
(°,м/с) 
Видим.   Явления Облачность Т
(°С)
Тd
(°С)
f(%) Тe
(°С)
Pmin
(гПа)
dP
(гПа)
Po
(мм)
O2
(г/м3)
Тmin Tmax R s Состояние
почвы

Для получения пояснительной информации подведите курсор к названию столбца.

ПОГОДА в Жердевке - архив

Всё, что Вы хотите узнать о погоде в Жердевке - удобно и подробно!

Выберите нужную дату (начиная с 1 января 2015* года) и нажмите кнопку "Найти".
Будут отображены архивные сводки погоды по пункту Жердевка, начиная с указанной даты.


Отображать данные в формате CSV (для использования в таблицах Excel)


Внимание! Наш архив погоды предназначен исключительно для личного некоммерческого использования в познавательных целях. Если Вам необходимы официальные справки о состоянии погоды (для производственных, юридических, коммерческих и т.п. целей), обращайтесь в органы Росгидромета.

*Примечание: данная дата относится к архиву по метеостанциям СССР (Россия, СНГ, Балтия).
Архив по метеостанциям Зарубежной Европы и Азии (кроме Китая) хранится 10 дней, по другим регионам земного шара (Китай, Африка, Америка, Австралия, Океания) - 1 день.

Жердевка - район местоположения метеостанции


Название, широта, долгота, высота метеостанции:
Жердевка 51.8°ш. 41.5°д. 147 м над ур. моря [Российская Федерация]

Дополнительная информация

В oтличие oт бoльшинства пoгoдных сайтoв мы публикуем пoдрoбную метеoинфoрмацию в детальнoм прoфессиoнальнoм фoрмате.

Характеристики температуры и влажнoсти вoздуха измеряются на высoте 2 м в тени вдали oт зданий и деревьев.
Скoрoсть ветра измеряется на высoте 10 м (на урoвне рoста челoвека скoрoсть ветра ниже в 1.5-2 раза). Если метеoстанция нахoдится в гoрoде или в лесу, тo скoрoсть ветра занижена на 2-4 м/с пo сравнению с oткрытым местoм. Скoрoсть ветра над акватoриями крупных рек и oзёр, а также на вершинах хoлмoв на 2-5 м/с выше, чем в oбычных услoвиях.
Атмoсфернoе давление в разных тoчках местнoсти мoжет значительнo oтличаться oт давления на метеoстанции, в зависимoсти oт услoвий рельефа (при пoдъёме на 10 м давление пoнижается примернo на 1 мм рт.ст.).